Year,Month,Day,Hour,Minute,Value (Times are PST for temperature in C)
2010,01,19,00,00,8.60
2010,01,19,00,01,8.60
2010,01,19,00,02,8.60
2010,01,19,00,03,8.60
2010,01,19,00,04,8.50
2010,01,19,00,05,8.50
2010,01,19,00,06,8.50
2010,01,19,00,07,8.40
2010,01,19,00,08,8.40
2010,01,19,00,09,8.40
2010,01,19,00,10,8.30
2010,01,19,00,11,8.30
2010,01,19,00,12,8.30
2010,01,19,00,13,8.30
2010,01,19,00,14,8.30
2010,01,19,00,15,8.30
2010,01,19,00,16,8.30
2010,01,19,00,17,8.30
2010,01,19,00,18,8.30
2010,01,19,00,19,8.30
2010,01,19,00,20,8.20
2010,01,19,00,21,8.20
2010,01,19,00,22,8.20
2010,01,19,00,23,8.20
2010,01,19,00,24,8.20
2010,01,19,00,25,8.20
2010,01,19,00,26,8.20
2010,01,19,00,27,8.20
2010,01,19,00,28,8.20
2010,01,19,00,29,8.20
2010,01,19,00,30,8.20
2010,01,19,00,31,8.20
2010,01,19,00,32,8.20
2010,01,19,00,33,8.20
2010,01,19,00,34,8.20
2010,01,19,00,35,8.20
2010,01,19,00,36,8.20
2010,01,19,00,37,8.20
2010,01,19,00,38,8.20
2010,01,19,00,39,8.20
2010,01,19,00,40,8.20
2010,01,19,00,41,8.20
2010,01,19,00,42,8.20
2010,01,19,00,43,8.20
2010,01,19,00,44,8.20
2010,01,19,00,45,8.20
2010,01,19,00,46,8.20
2010,01,19,00,47,8.20
2010,01,19,00,48,8.20
2010,01,19,00,49,8.20
2010,01,19,00,50,8.20
2010,01,19,00,51,8.20
2010,01,19,00,52,8.20
2010,01,19,00,53,8.20
2010,01,19,00,54,8.20
2010,01,19,00,55,8.10
2010,01,19,00,56,8.10
2010,01,19,00,57,8.10
2010,01,19,00,58,8.10
2010,01,19,00,59,8.10
2010,01,19,01,00,8.00
2010,01,19,01,01,8.00
2010,01,19,01,02,8.00
2010,01,19,01,03,8.00
2010,01,19,01,04,8.00
2010,01,19,01,05,8.00
2010,01,19,01,06,8.00
2010,01,19,01,07,7.90
2010,01,19,01,08,7.90
2010,01,19,01,09,7.90
2010,01,19,01,10,7.90
2010,01,19,01,11,7.90
2010,01,19,01,12,7.90
2010,01,19,01,13,7.90
2010,01,19,01,14,7.90
2010,01,19,01,15,7.90
2010,01,19,01,16,7.90
2010,01,19,01,17,7.90
2010,01,19,01,18,7.90
2010,01,19,01,19,7.90
2010,01,19,01,20,7.90
2010,01,19,01,21,7.90
2010,01,19,01,22,7.90
2010,01,19,03,21,7.70
2010,01,19,03,22,7.70
2010,01,19,03,23,7.70
2010,01,19,03,24,7.70
2010,01,19,03,25,7.70
2010,01,19,03,26,7.70
2010,01,19,03,27,7.70
2010,01,19,03,28,7.70
2010,01,19,03,29,7.70
2010,01,19,03,30,7.70
2010,01,19,03,31,7.70
2010,01,19,03,32,7.70
2010,01,19,03,33,7.70
2010,01,19,03,34,7.60
2010,01,19,03,35,7.60
2010,01,19,03,36,7.60
2010,01,19,03,37,7.60
2010,01,19,03,38,7.60
2010,01,19,03,39,7.60
2010,01,19,03,40,7.60
2010,01,19,03,41,7.60
2010,01,19,03,42,7.60
2010,01,19,03,43,7.60
2010,01,19,03,44,7.60
2010,01,19,03,45,7.60
2010,01,19,03,46,7.60
2010,01,19,03,47,7.60
2010,01,19,03,48,7.60
2010,01,19,03,49,7.60
2010,01,19,03,50,7.60
2010,01,19,03,51,7.60
2010,01,19,03,52,7.70
2010,01,19,03,53,7.70
2010,01,19,03,54,7.70
2010,01,19,03,55,7.70
2010,01,19,03,56,7.70
2010,01,19,03,57,7.70
2010,01,19,03,58,7.70
2010,01,19,03,59,7.70
2010,01,19,04,00,7.70
2010,01,19,04,01,7.70
2010,01,19,04,02,7.70
2010,01,19,04,03,7.60
2010,01,19,04,04,7.60
2010,01,19,04,05,7.60
2010,01,19,04,06,7.60
2010,01,19,04,07,7.60
2010,01,19,04,08,7.60
2010,01,19,04,09,7.50
2010,01,19,04,10,7.50
2010,01,19,04,11,7.50
2010,01,19,04,12,7.50
2010,01,19,04,13,7.50
2010,01,19,04,14,7.50
2010,01,19,04,15,7.50
2010,01,19,04,16,7.50
2010,01,19,04,17,7.50
2010,01,19,04,18,7.50
2010,01,19,04,19,7.50
2010,01,19,04,20,7.50
2010,01,19,04,21,7.50
2010,01,19,04,22,7.50
2010,01,19,04,23,7.50
2010,01,19,04,24,7.50
2010,01,19,04,25,7.50
2010,01,19,04,26,7.60
2010,01,19,04,27,7.60
2010,01,19,04,28,7.60
2010,01,19,04,29,7.70
2010,01,19,04,30,7.80
2010,01,19,04,31,7.80
2010,01,19,04,32,7.80
2010,01,19,04,33,7.80
2010,01,19,04,34,7.80
2010,01,19,04,35,7.70
2010,01,19,04,36,7.70
2010,01,19,04,37,7.70
2010,01,19,04,38,7.70
2010,01,19,04,39,7.70
2010,01,19,04,40,7.70
2010,01,19,04,41,7.70
2010,01,19,04,42,7.80
2010,01,19,04,43,7.80
2010,01,19,04,44,7.80
2010,01,19,04,45,7.80
2010,01,19,04,46,7.80
2010,01,19,04,47,7.80
2010,01,19,04,48,7.80
2010,01,19,04,49,7.80
2010,01,19,04,50,7.80
2010,01,19,04,51,7.80
2010,01,19,04,52,7.80
2010,01,19,04,53,7.80
2010,01,19,04,54,7.80
2010,01,19,04,55,7.70
2010,01,19,04,56,7.70
2010,01,19,04,57,7.70
2010,01,19,04,58,7.60
2010,01,19,04,59,7.60
2010,01,19,05,00,7.60
2010,01,19,05,01,7.60
2010,01,19,05,02,7.60
2010,01,19,05,03,7.60
2010,01,19,05,04,7.60
2010,01,19,05,05,7.60
2010,01,19,05,06,7.70
2010,01,19,05,07,7.80
2010,01,19,05,08,7.80
2010,01,19,05,09,7.90
2010,01,19,05,10,7.90
2010,01,19,05,11,8.10
2010,01,19,05,12,8.20
2010,01,19,05,13,8.50
2010,01,19,05,14,8.80
2010,01,19,05,15,9.20
2010,01,19,05,16,9.30
2010,01,19,05,17,9.70
2010,01,19,05,18,9.90
2010,01,19,05,19,10.10
2010,01,19,05,20,10.30
2010,01,19,05,21,10.40
2010,01,19,05,22,10.50
2010,01,19,05,23,10.60
2010,01,19,05,24,10.60
2010,01,19,05,25,10.60
2010,01,19,05,26,10.60
2010,01,19,05,27,10.60
2010,01,19,05,28,10.60
2010,01,19,05,29,10.60
2010,01,19,05,30,10.60
2010,01,19,05,31,10.70
2010,01,19,05,32,10.80
2010,01,19,05,33,10.80
2010,01,19,05,34,10.80
2010,01,19,05,35,10.90
2010,01,19,05,36,10.90
2010,01,19,05,37,10.90
2010,01,19,05,38,10.90
2010,01,19,05,39,10.90
2010,01,19,05,40,10.90
2010,01,19,05,41,10.90
2010,01,19,05,42,10.90
2010,01,19,05,43,10.90
2010,01,19,05,44,10.90
2010,01,19,05,45,10.90
2010,01,19,05,46,10.90
2010,01,19,05,47,10.80
2010,01,19,05,48,10.80
2010,01,19,05,49,10.80
2010,01,19,05,50,10.80
2010,01,19,05,51,10.80
2010,01,19,05,52,10.80
2010,01,19,05,53,10.90
2010,01,19,05,54,10.90
2010,01,19,05,55,10.90
2010,01,19,05,56,10.90
2010,01,19,05,57,10.90
2010,01,19,05,58,10.90
2010,01,19,05,59,10.90
2010,01,19,06,00,10.90
2010,01,19,06,01,11.00
2010,01,19,06,02,10.90
2010,01,19,06,03,10.90
2010,01,19,06,04,10.90
2010,01,19,06,05,10.90
2010,01,19,06,06,10.90
2010,01,19,06,07,10.90
2010,01,19,06,08,10.90
2010,01,19,06,09,10.90
2010,01,19,06,10,10.90
2010,01,19,06,11,10.90
2010,01,19,06,12,10.90
2010,01,19,06,13,10.90
2010,01,19,06,14,10.90
2010,01,19,06,15,10.90
2010,01,19,06,16,10.90
2010,01,19,06,17,10.90
2010,01,19,06,18,10.90
2010,01,19,06,19,11.00
2010,01,19,06,20,11.10
2010,01,19,06,21,11.10
2010,01,19,06,22,11.10
2010,01,19,06,23,11.10
2010,01,19,06,24,11.10
2010,01,19,06,25,11.10
2010,01,19,06,26,11.10
2010,01,19,06,27,11.10
2010,01,19,06,28,11.10
2010,01,19,06,29,11.00
2010,01,19,06,30,10.90
2010,01,19,06,31,10.90
2010,01,19,06,32,10.90
2010,01,19,06,33,10.90
2010,01,19,06,34,10.90
2010,01,19,06,35,10.80
2010,01,19,06,36,10.80
2010,01,19,06,37,10.70
2010,01,19,06,38,10.70
2010,01,19,06,39,10.60
2010,01,19,06,40,10.60
2010,01,19,06,41,10.60
2010,01,19,06,42,10.60
2010,01,19,06,43,10.60
2010,01,19,06,44,10.60
2010,01,19,06,45,10.60
2010,01,19,06,46,10.60
2010,01,19,06,47,10.60
2010,01,19,06,48,10.60
2010,01,19,06,49,10.60
2010,01,19,06,50,10.60
2010,01,19,06,51,10.60
2010,01,19,06,52,10.70
2010,01,19,06,53,10.80
2010,01,19,06,54,10.80
2010,01,19,06,55,10.90
2010,01,19,06,56,10.90
2010,01,19,06,57,11.10
2010,01,19,06,58,11.10
2010,01,19,06,59,11.10
2010,01,19,07,00,11.20
2010,01,19,07,01,11.20
2010,01,19,07,02,11.30
2010,01,19,07,03,11.30
2010,01,19,07,04,11.30
2010,01,19,07,05,11.30
2010,01,19,07,06,11.30
2010,01,19,07,07,11.30
2010,01,19,07,08,11.30
2010,01,19,07,09,11.30
2010,01,19,07,10,11.30
2010,01,19,07,11,11.30
2010,01,19,07,12,11.40
2010,01,19,07,13,11.30
2010,01,19,07,14,11.30
2010,01,19,07,15,11.30
2010,01,19,07,16,11.30
2010,01,19,07,17,11.30
2010,01,19,07,18,11.30
2010,01,19,07,19,11.40
2010,01,19,07,20,11.40
2010,01,19,07,21,11.40
2010,01,19,07,22,11.40
2010,01,19,07,23,11.40
2010,01,19,07,24,11.40
2010,01,19,07,25,11.40
2010,01,19,07,26,11.40
2010,01,19,07,27,11.40
2010,01,19,07,28,11.40
2010,01,19,07,29,11.40
2010,01,19,07,30,11.40
2010,01,19,07,31,11.40
2010,01,19,07,32,11.40
2010,01,19,07,33,11.40
2010,01,19,07,34,11.40
2010,01,19,07,35,11.40
2010,01,19,07,36,11.40
2010,01,19,07,37,11.40
2010,01,19,07,38,11.40
2010,01,19,07,39,11.40
2010,01,19,07,40,11.40
2010,01,19,07,41,11.40
2010,01,19,07,42,11.40
2010,01,19,07,43,11.40
2010,01,19,07,44,11.40
2010,01,19,07,45,11.30
2010,01,19,07,46,11.30
2010,01,19,07,47,11.30
2010,01,19,07,48,11.30
2010,01,19,07,49,11.20
2010,01,19,07,50,11.20
2010,01,19,07,51,11.30
2010,01,19,07,52,11.30
2010,01,19,07,53,11.30
2010,01,19,07,54,11.40
2010,01,19,07,55,11.40
2010,01,19,07,56,11.40
2010,01,19,07,57,11.40
2010,01,19,07,58,11.40
2010,01,19,07,59,11.40
2010,01,19,08,00,11.40
2010,01,19,08,01,11.40
2010,01,19,08,02,11.40
2010,01,19,08,03,11.40
2010,01,19,08,04,11.30
2010,01,19,08,05,11.30
2010,01,19,08,06,11.30
2010,01,19,08,07,11.30
2010,01,19,08,08,11.30
2010,01,19,08,09,11.30
2010,01,19,08,10,11.30
2010,01,19,08,11,11.20
2010,01,19,08,12,11.20
2010,01,19,08,13,11.20
2010,01,19,08,14,11.20
2010,01,19,08,15,11.20
2010,01,19,08,16,11.20
2010,01,19,08,17,11.20
2010,01,19,08,18,11.10
2010,01,19,08,19,11.10
2010,01,19,08,20,11.10
2010,01,19,08,21,11.10
2010,01,19,08,22,11.10
2010,01,19,08,23,11.10
2010,01,19,08,24,11.10
2010,01,19,08,25,11.10
2010,01,19,08,26,11.00
2010,01,19,08,27,10.90
2010,01,19,08,28,10.90
2010,01,19,08,29,10.90
2010,01,19,08,30,11.00
2010,01,19,08,31,11.10
2010,01,19,08,32,11.00
2010,01,19,08,33,10.90
2010,01,19,08,34,10.90
2010,01,19,08,35,10.90
2010,01,19,08,36,10.90
2010,01,19,08,37,10.90
2010,01,19,08,38,10.90
2010,01,19,08,39,10.90
2010,01,19,08,40,10.90
2010,01,19,08,41,10.80
2010,01,19,08,42,10.80
2010,01,19,08,43,10.80
2010,01,19,08,44,10.80
2010,01,19,08,45,10.70
2010,01,19,08,46,10.70
2010,01,19,08,47,10.60
2010,01,19,08,48,10.60
2010,01,19,08,49,10.60
2010,01,19,08,50,10.60
2010,01,19,08,51,10.60
2010,01,19,08,52,10.60
2010,01,19,08,53,10.60
2010,01,19,08,54,10.70
2010,01,19,08,55,10.80
2010,01,19,08,56,10.80
2010,01,19,08,57,10.90
2010,01,19,08,58,10.90
2010,01,19,08,59,10.90
2010,01,19,09,00,11.00
2010,01,19,09,01,11.10
2010,01,19,09,02,11.10
2010,01,19,09,03,11.10
2010,01,19,09,04,11.10
2010,01,19,09,05,11.10
2010,01,19,09,06,11.10
2010,01,19,09,07,11.10
2010,01,19,09,08,11.10
2010,01,19,09,09,11.10
2010,01,19,09,10,11.10
2010,01,19,09,11,11.10
2010,01,19,09,12,11.10
2010,01,19,09,13,11.10
2010,01,19,09,14,11.20
2010,01,19,09,15,11.10
2010,01,19,09,16,11.10
2010,01,19,09,17,11.10
2010,01,19,09,18,11.10
2010,01,19,09,19,11.10
2010,01,19,09,20,11.10
2010,01,19,09,21,11.20
2010,01,19,09,22,11.20
2010,01,19,09,23,11.20
2010,01,19,09,24,11.20
2010,01,19,09,25,11.20
2010,01,19,09,26,11.20
2010,01,19,09,27,11.20
2010,01,19,09,28,11.20
2010,01,19,09,29,11.20
2010,01,19,09,30,11.20
2010,01,19,09,31,11.10
2010,01,19,09,32,11.10
2010,01,19,09,33,11.10
2010,01,19,09,34,11.10
2010,01,19,09,35,11.10
2010,01,19,09,36,11.10
2010,01,19,09,37,11.00
2010,01,19,09,38,10.90
2010,01,19,09,39,10.90
2010,01,19,09,40,10.90
2010,01,19,09,41,10.90
2010,01,19,09,42,10.90
2010,01,19,09,43,10.90
2010,01,19,09,44,10.90
2010,01,19,09,45,10.90
2010,01,19,09,46,10.90
2010,01,19,09,47,10.90
2010,01,19,09,48,11.10
2010,01,19,09,49,11.10
2010,01,19,09,50,11.20
2010,01,19,09,51,11.30
2010,01,19,09,52,11.30
2010,01,19,09,53,11.30
2010,01,19,09,54,11.40
2010,01,19,09,55,11.40
2010,01,19,09,56,11.40
2010,01,19,09,57,11.50
2010,01,19,09,58,11.60
2010,01,19,09,59,11.60
2010,01,19,10,00,11.60
2010,01,19,10,01,11.50
2010,01,19,10,02,11.40
2010,01,19,10,03,11.40
2010,01,19,10,04,11.30
2010,01,19,10,05,11.10
2010,01,19,10,06,11.00
2010,01,19,10,07,10.90
2010,01,19,10,08,10.80
2010,01,19,10,09,10.70
2010,01,19,10,10,10.70
2010,01,19,10,11,10.70
2010,01,19,10,12,10.60
2010,01,19,10,13,10.60
2010,01,19,10,14,10.60
2010,01,19,10,15,10.60
2010,01,19,10,16,10.60
2010,01,19,10,17,10.60
2010,01,19,10,18,10.60
2010,01,19,10,19,10.60
2010,01,19,10,20,10.60
2010,01,19,10,21,10.60
2010,01,19,10,22,10.60
2010,01,19,10,23,10.60
2010,01,19,10,24,10.60
2010,01,19,10,25,10.60
2010,01,19,10,26,10.60
2010,01,19,10,27,10.70
2010,01,19,10,28,10.70
2010,01,19,10,29,10.80
2010,01,19,10,30,10.80
2010,01,19,10,31,10.80
2010,01,19,10,32,10.80
2010,01,19,10,33,10.80
2010,01,19,10,34,10.70
2010,01,19,10,35,10.70
2010,01,19,10,36,10.70
2010,01,19,10,37,10.70
2010,01,19,10,38,10.70
2010,01,19,10,39,10.70
2010,01,19,10,40,10.80
2010,01,19,10,41,10.80
2010,01,19,10,42,10.80
2010,01,19,10,43,10.70
2010,01,19,10,44,10.70
2010,01,19,10,45,10.60
2010,01,19,10,46,10.50
2010,01,19,10,47,10.40
2010,01,19,10,48,10.30
2010,01,19,10,49,10.30
2010,01,19,10,50,10.20
2010,01,19,10,51,10.20
2010,01,19,10,52,10.10
2010,01,19,10,53,10.10
2010,01,19,10,54,10.10
2010,01,19,10,55,10.20
2010,01,19,10,56,10.30
2010,01,19,10,57,10.60
2010,01,19,10,58,10.80
2010,01,19,10,59,10.90
2010,01,19,11,00,11.00
2010,01,19,11,01,11.10
2010,01,19,11,02,11.10
2010,01,19,11,03,10.90
2010,01,19,11,04,10.80
2010,01,19,11,05,10.70
2010,01,19,11,06,10.60
2010,01,19,11,07,10.50
2010,01,19,11,08,10.30
2010,01,19,11,09,10.20
2010,01,19,11,10,10.20
2010,01,19,11,11,10.10
2010,01,19,11,12,10.10
2010,01,19,11,13,9.90
2010,01,19,11,14,9.90
2010,01,19,11,15,9.90
2010,01,19,11,16,9.90
2010,01,19,11,17,9.90
2010,01,19,11,18,10.00
2010,01,19,11,19,10.10
2010,01,19,11,20,10.10
2010,01,19,11,21,10.20
2010,01,19,11,22,10.20
2010,01,19,11,23,10.30
2010,01,19,11,24,10.30
2010,01,19,11,25,10.40
2010,01,19,11,26,10.40
2010,01,19,11,27,10.50
2010,01,19,11,28,10.60
2010,01,19,11,29,10.70
2010,01,19,11,30,10.90
2010,01,19,11,31,11.00
2010,01,19,11,32,11.10
2010,01,19,11,33,11.20
2010,01,19,11,34,11.30
2010,01,19,11,35,11.30
2010,01,19,11,36,11.30
2010,01,19,11,37,11.40
2010,01,19,11,38,11.40
2010,01,19,11,39,11.40
2010,01,19,11,40,11.50
2010,01,19,11,41,11.60
2010,01,19,11,42,11.60
2010,01,19,11,43,11.60
2010,01,19,11,44,11.60
2010,01,19,11,45,11.70
2010,01,19,11,46,11.70
2010,01,19,11,47,11.80
2010,01,19,11,48,11.80
2010,01,19,11,49,11.80
2010,01,19,11,50,11.80
2010,01,19,11,51,11.80
2010,01,19,11,52,11.90
2010,01,19,11,53,11.90
2010,01,19,11,54,11.90
2010,01,19,11,55,11.90
2010,01,19,11,56,11.80
2010,01,19,11,57,11.80
2010,01,19,11,58,11.70
2010,01,19,11,59,11.60
2010,01,19,12,00,11.50
2010,01,19,12,01,11.40
2010,01,19,12,02,11.40
2010,01,19,12,03,11.30
2010,01,19,12,04,11.20
2010,01,19,12,05,11.10
2010,01,19,12,06,11.10
2010,01,19,12,07,11.10
2010,01,19,12,08,11.10
2010,01,19,12,09,11.10
2010,01,19,12,10,11.10
2010,01,19,12,11,11.10
2010,01,19,12,12,11.10
2010,01,19,12,13,11.10
2010,01,19,12,14,11.10
2010,01,19,12,15,11.20
2010,01,19,12,16,11.20
2010,01,19,12,17,11.30
2010,01,19,12,18,11.30
2010,01,19,12,19,11.40
2010,01,19,12,20,11.40
2010,01,19,12,21,11.40
2010,01,19,12,22,11.40
2010,01,19,12,23,11.60
2010,01,19,12,24,11.60
2010,01,19,12,25,11.60
2010,01,19,12,26,11.60
2010,01,19,12,27,11.70
2010,01,19,12,28,11.80
2010,01,19,12,29,11.80
2010,01,19,12,30,11.80
2010,01,19,12,31,11.90
2010,01,19,12,32,11.90
2010,01,19,12,33,11.90
2010,01,19,12,34,12.00
2010,01,19,12,35,11.90
2010,01,19,12,36,11.90
2010,01,19,12,37,11.80
2010,01,19,12,38,11.80
2010,01,19,12,39,11.80
2010,01,19,12,40,11.90
2010,01,19,12,41,11.90
2010,01,19,12,42,11.90
2010,01,19,12,43,11.90
2010,01,19,12,44,11.90
2010,01,19,12,45,11.80
2010,01,19,12,46,11.80
2010,01,19,12,47,11.80
2010,01,19,12,48,11.80
2010,01,19,12,49,11.80
2010,01,19,12,50,11.80
2010,01,19,12,51,11.80
2010,01,19,12,52,11.80
2010,01,19,12,53,11.80
2010,01,19,12,54,11.80
2010,01,19,12,55,11.80
2010,01,19,12,56,11.80
2010,01,19,12,57,11.80
2010,01,19,12,58,11.80
2010,01,19,12,59,11.80
2010,01,19,13,00,11.80
2010,01,19,13,01,11.80
2010,01,19,13,02,11.80
2010,01,19,13,03,11.80
2010,01,19,13,04,11.80
2010,01,19,13,05,11.80
2010,01,19,13,06,11.80
2010,01,19,13,07,11.80
2010,01,19,13,08,11.80
2010,01,19,13,09,11.80
2010,01,19,13,10,11.80
2010,01,19,13,11,11.80
2010,01,19,13,12,11.80
2010,01,19,13,13,11.80
2010,01,19,13,14,11.80
2010,01,19,13,15,11.80
2010,01,19,13,16,11.80
2010,01,19,13,17,11.80
2010,01,19,13,18,11.80
2010,01,19,13,19,11.90
2010,01,19,13,20,11.90
2010,01,19,13,21,11.90
2010,01,19,13,22,11.90
2010,01,19,13,23,11.90
2010,01,19,13,24,12.00
2010,01,19,13,25,12.00
2010,01,19,13,26,12.00
2010,01,19,13,27,12.00
2010,01,19,13,28,12.10
2010,01,19,13,29,12.10
2010,01,19,13,30,12.10
2010,01,19,13,31,12.10
2010,01,19,13,32,12.00
2010,01,19,13,33,12.00
2010,01,19,13,34,11.90
2010,01,19,13,35,11.90
2010,01,19,13,36,11.90
2010,01,19,13,37,11.80
2010,01,19,13,38,11.80
2010,01,19,13,39,11.80
2010,01,19,13,40,11.80
2010,01,19,13,41,11.80
2010,01,19,13,42,11.80
2010,01,19,13,43,11.80
2010,01,19,13,44,11.80
2010,01,19,13,45,11.80
2010,01,19,13,46,11.70
2010,01,19,13,47,11.70
2010,01,19,13,48,11.70
2010,01,19,13,49,11.70
2010,01,19,13,50,11.70
2010,01,19,13,51,11.70
2010,01,19,13,52,11.70
2010,01,19,13,53,11.70
2010,01,19,13,54,11.70
2010,01,19,13,55,11.70
2010,01,19,13,56,11.70
2010,01,19,13,57,11.70
2010,01,19,13,58,11.70
2010,01,19,13,59,11.70
2010,01,19,14,00,11.70
2010,01,19,14,01,11.70
2010,01,19,14,02,11.70
2010,01,19,14,03,11.70
2010,01,19,14,04,11.70
2010,01,19,14,05,11.70
2010,01,19,14,06,11.70
2010,01,19,14,07,11.60
2010,01,19,14,08,11.60
2010,01,19,14,09,11.60
2010,01,19,14,10,11.60
2010,01,19,14,11,11.60
2010,01,19,14,12,11.60
2010,01,19,14,13,11.60
2010,01,19,14,14,11.60
2010,01,19,14,15,11.60
2010,01,19,14,16,11.60
2010,01,19,14,17,11.60
2010,01,19,14,18,11.60
2010,01,19,14,19,11.60
2010,01,19,14,20,11.60
2010,01,19,14,21,11.60
2010,01,19,14,22,11.40
2010,01,19,14,23,11.40
2010,01,19,14,24,11.40
2010,01,19,14,25,11.40
2010,01,19,14,26,11.30
2010,01,19,14,27,11.30
2010,01,19,14,28,11.20
2010,01,19,14,29,11.20
2010,01,19,14,30,11.10
2010,01,19,14,31,11.10
2010,01,19,14,32,11.10
2010,01,19,14,33,11.10
2010,01,19,14,34,11.10
2010,01,19,14,35,11.10
2010,01,19,14,36,10.90
2010,01,19,14,37,10.90
2010,01,19,14,38,10.90
2010,01,19,14,39,10.90
2010,01,19,14,40,10.90
2010,01,19,14,41,10.90
2010,01,19,14,42,11.00
2010,01,19,14,43,11.10
2010,01,19,14,44,11.10
2010,01,19,14,45,11.10
2010,01,19,14,46,11.10
2010,01,19,14,47,11.20
2010,01,19,14,48,11.20
2010,01,19,14,49,11.20
2010,01,19,14,50,11.20
2010,01,19,14,51,11.20
2010,01,19,14,52,11.20
2010,01,19,14,53,11.20
2010,01,19,14,54,11.20
2010,01,19,14,55,11.10
2010,01,19,14,56,11.10
2010,01,19,14,57,11.10
2010,01,19,14,58,11.10
2010,01,19,14,59,11.10
2010,01,19,15,00,11.10
2010,01,19,15,01,11.10
2010,01,19,15,02,11.10
2010,01,19,15,03,11.10
2010,01,19,15,04,11.10
2010,01,19,15,05,11.10
2010,01,19,15,06,11.10
2010,01,19,15,07,11.10
2010,01,19,15,08,11.10
2010,01,19,15,09,11.10
2010,01,19,15,10,11.10
2010,01,19,15,11,11.10
2010,01,19,15,12,11.10
2010,01,19,15,13,11.10
2010,01,19,15,14,11.10
2010,01,19,15,15,11.20
2010,01,19,15,16,11.20
2010,01,19,15,17,11.20
2010,01,19,15,18,11.30
2010,01,19,15,19,11.30
2010,01,19,15,20,11.30
2010,01,19,15,21,11.30
2010,01,19,15,22,11.30
2010,01,19,15,23,11.30
2010,01,19,15,24,11.40
2010,01,19,15,25,11.40
2010,01,19,15,26,11.40
2010,01,19,15,27,11.40
2010,01,19,15,28,11.50
2010,01,19,15,29,11.60
2010,01,19,15,30,11.60
2010,01,19,15,31,11.60
2010,01,19,15,32,11.60
2010,01,19,15,33,11.60
2010,01,19,15,34,11.60
2010,01,19,15,35,11.60
2010,01,19,15,36,11.60
2010,01,19,15,37,11.60
2010,01,19,15,38,11.60
2010,01,19,15,39,11.60
2010,01,19,15,40,11.60
2010,01,19,15,41,11.60
2010,01,19,15,42,11.60
2010,01,19,15,43,11.60
2010,01,19,15,44,11.60
2010,01,19,15,45,11.60
2010,01,19,15,46,11.60
2010,01,19,15,47,11.60
2010,01,19,15,48,11.60
2010,01,19,15,49,11.60
2010,01,19,15,50,11.60
2010,01,19,15,51,11.60
2010,01,19,15,52,11.60
2010,01,19,15,53,11.60
2010,01,19,15,54,11.60
2010,01,19,15,55,11.50
2010,01,19,15,56,11.40
2010,01,19,15,57,11.40
2010,01,19,15,58,11.40
2010,01,19,15,59,11.40
2010,01,19,16,00,11.40
2010,01,19,16,01,11.40
2010,01,19,16,02,11.40
2010,01,19,16,03,11.40
2010,01,19,16,04,11.40
2010,01,19,16,05,11.40
2010,01,19,16,06,11.40
2010,01,19,16,07,11.40
2010,01,19,16,08,11.40
2010,01,19,16,09,11.40
2010,01,19,16,10,11.30
2010,01,19,16,11,11.30
2010,01,19,16,12,11.30
2010,01,19,16,13,11.30
2010,01,19,16,14,11.30
2010,01,19,16,15,11.30
2010,01,19,16,16,11.30
2010,01,19,16,17,11.30
2010,01,19,16,18,11.20
2010,01,19,16,19,11.20
2010,01,19,16,20,11.20
2010,01,19,16,21,11.20
2010,01,19,16,22,11.20
2010,01,19,16,23,11.20
2010,01,19,16,24,11.20
2010,01,19,16,25,11.20
2010,01,19,16,26,11.20
2010,01,19,16,27,11.20
2010,01,19,16,28,11.20
2010,01,19,16,29,11.20
2010,01,19,16,30,11.20
2010,01,19,16,31,11.20
2010,01,19,16,32,11.20
2010,01,19,16,33,11.20
2010,01,19,16,34,11.20
2010,01,19,16,35,11.30
2010,01,19,16,36,11.30
2010,01,19,16,37,11.30
2010,01,19,16,38,11.40
2010,01,19,16,39,11.40
2010,01,19,16,40,11.40
2010,01,19,16,41,11.40
2010,01,19,16,42,11.40
2010,01,19,16,43,11.40
2010,01,19,16,44,11.40
2010,01,19,16,45,11.40
2010,01,19,16,46,11.40
2010,01,19,16,47,11.40
2010,01,19,16,48,11.40
2010,01,19,16,49,11.40
2010,01,19,16,50,11.40
2010,01,19,16,51,11.40
2010,01,19,16,52,11.40
2010,01,19,16,53,11.40
2010,01,19,16,54,11.40
2010,01,19,16,55,11.40
2010,01,19,16,56,11.40
2010,01,19,16,57,11.40
2010,01,19,16,58,11.40
2010,01,19,16,59,11.40
2010,01,19,17,00,11.40
2010,01,19,17,01,11.30
2010,01,19,17,02,11.30
2010,01,19,17,03,11.30
2010,01,19,17,04,11.20
2010,01,19,17,05,11.20
2010,01,19,17,06,11.20
2010,01,19,17,07,11.20
2010,01,19,17,08,11.30
2010,01,19,17,09,11.30
2010,01,19,17,10,11.30
2010,01,19,17,11,11.30
2010,01,19,17,12,11.30
2010,01,19,17,13,11.40
2010,01,19,17,14,11.40
2010,01,19,17,15,11.40
2010,01,19,17,16,11.60
2010,01,19,17,17,11.60
2010,01,19,17,18,11.60
2010,01,19,17,19,11.60
2010,01,19,17,20,11.60
2010,01,19,17,21,11.50
2010,01,19,17,22,11.40
2010,01,19,17,23,11.40
2010,01,19,17,24,11.40
2010,01,19,17,25,11.40
2010,01,19,17,26,11.30
2010,01,19,17,27,11.30
2010,01,19,17,28,11.30
2010,01,19,17,29,11.20
2010,01,19,17,30,11.20
2010,01,19,17,31,11.30
2010,01,19,17,32,11.30
2010,01,19,17,33,11.40
2010,01,19,17,34,11.40
2010,01,19,17,35,11.50
2010,01,19,17,36,11.60
2010,01,19,17,37,11.60
2010,01,19,17,38,11.60
2010,01,19,17,39,11.60
2010,01,19,17,40,11.60
2010,01,19,17,41,11.60
2010,01,19,17,42,11.70
2010,01,19,17,43,11.70
2010,01,19,17,44,11.80
2010,01,19,17,45,11.80
2010,01,19,17,46,11.90
2010,01,19,17,47,12.00
2010,01,19,17,48,12.00
2010,01,19,17,49,12.10
2010,01,19,17,50,12.20
2010,01,19,17,51,12.30
2010,01,19,17,52,12.30
2010,01,19,17,53,12.30
2010,01,19,17,54,12.40
2010,01,19,17,55,12.40
2010,01,19,17,56,12.40
2010,01,19,17,57,12.40
2010,01,19,17,58,12.50
2010,01,19,17,59,12.50
2010,01,19,18,00,12.50
2010,01,19,18,01,12.40
2010,01,19,18,02,12.40
2010,01,19,18,03,12.30
2010,01,19,18,04,12.20
2010,01,19,18,05,12.10
2010,01,19,18,06,12.00
2010,01,19,18,07,12.00
2010,01,19,18,08,12.00
2010,01,19,18,09,11.90
2010,01,19,18,10,12.00
2010,01,19,18,11,12.00
2010,01,19,18,12,12.00
2010,01,19,18,13,12.00
2010,01,19,18,14,12.00
2010,01,19,18,15,12.00
2010,01,19,18,16,12.00
2010,01,19,18,17,12.00
2010,01,19,18,18,12.00
2010,01,19,18,19,12.00
2010,01,19,18,20,12.00
2010,01,19,18,21,12.10
2010,01,19,18,22,12.10
2010,01,19,18,23,12.10
2010,01,19,18,24,12.10
2010,01,19,18,25,12.10
2010,01,19,18,26,12.10
2010,01,19,18,27,12.10
2010,01,19,18,28,12.10
2010,01,19,18,29,12.00
2010,01,19,18,30,12.10
2010,01,19,18,31,12.00
2010,01,19,18,32,12.00
2010,01,19,18,33,12.00
2010,01,19,18,34,12.00
2010,01,19,18,35,12.00
2010,01,19,18,36,12.00
2010,01,19,18,37,12.00
2010,01,19,18,38,12.00
2010,01,19,18,39,12.00
2010,01,19,18,40,11.90
2010,01,19,18,41,12.10
2010,01,19,18,42,12.20
2010,01,19,18,43,12.40
2010,01,19,18,44,12.50
2010,01,19,18,45,12.60
2010,01,19,18,46,12.60
2010,01,19,18,47,12.60
2010,01,19,18,48,12.70
2010,01,19,18,49,12.70
2010,01,19,18,50,12.60
2010,01,19,18,51,12.60
2010,01,19,18,52,12.60
2010,01,19,18,53,12.60
2010,01,19,18,54,12.60
2010,01,19,18,55,12.70
2010,01,19,18,56,12.70
2010,01,19,18,57,12.80
2010,01,19,18,58,12.80
2010,01,19,18,59,12.70
2010,01,19,19,00,12.80
2010,01,19,19,01,12.80
2010,01,19,19,02,12.70
2010,01,19,19,03,12.60
2010,01,19,19,04,12.60
2010,01,19,19,05,12.60
2010,01,19,19,06,12.50
2010,01,19,19,07,12.50
2010,01,19,19,08,12.50
2010,01,19,19,09,12.40
2010,01,19,19,10,12.40
2010,01,19,19,11,12.40
2010,01,19,19,12,12.40
2010,01,19,19,13,12.40
2010,01,19,19,14,12.40
2010,01,19,19,15,12.40
2010,01,19,19,16,12.40
2010,01,19,19,17,12.30
2010,01,19,19,18,12.10
2010,01,19,19,19,11.90
2010,01,19,19,20,11.80
2010,01,19,19,21,11.70
2010,01,19,19,22,11.70
2010,01,19,19,23,11.60
2010,01,19,19,24,11.60
2010,01,19,19,25,11.60
2010,01,19,19,26,11.70